Terminal Aerodrome Forecast
Issued by NWS

Home | Current Version | Previous Version | Text Only | Print | Product List | Glossary On
Versions: 1 2 3 4 5 6 7 8 9 10 11 12 13 14 15 16 17 18 19 20 21 22 23 24
000
FTUS45 KGJT 271732
TAFRIL
TAF
KRIL 271732Z 2718/2818 VRB03KT P6SM BKN250
     FM272000 22004KT P6SM SCT100 BKN150
     FM280100 20004KT P6SM BKN100
     FM281200 VRB03KT P6SM SCT060 BKN090=

USA.gov is the U.S. government's official web portal to all federal, state and local government web resources and services.